Location: Kellogg
(38.0159°N, 90.0546°W)
Time: 08:47:39
(UTC+00:00)

Altair - Pass Details

Date: 18 September 2024
Orbit: 1501 x 1682 km, 47.2° (Epoch: 07 October)

Event Time Altitude Azimuth Distance (km) Brightness Sun altitude
Rises 06:13:11 0° 210° (SSW) 4,771 - -50.1°
Reaches altitude 10° 06:16:22 10° 205° (SSW) 3,813 - -50.0°
Maximum altitude 06:25:35 48° 135° (SE) 2,047 - -49.7°
Exits shadow 06:31:33 24° 75° (ENE) 2,955 9.0 -49.4°
Drops below altitude 10° 06:35:05 10° 65° (ENE) 3,936 9.9 -49.2°
Sets 06:38:25 0° 60° (ENE) 4,935 10.6 -49.0°
